This demonstration page uses our WeatherBlox Daily Observations layout. Learn more.

Left ArrowRight Arrow

39.95238, -75.16362

Hourly Observations for May 30, 2018

Temp ( °F °C ) Dew Point ( °F °C ) Humidity (%) Winds ( mph kmh ) Pressure ( in mb ) Visibility ( mi km ) Precip ( " mm )
12:49 am 00:49 Cloudy with Mist and Fog 70 21 68 20 94 94 WSW 7 11 30.03 1017 4 6 0.00 0.00
12:54 am 00:54 Cloudy with Mist and Fog 70 21.1 68 20 93 93 WSW 6 9 30.02 1017 4 6 0.00 0.00
1:01 am 01:01 Cloudy with Mist and Fog 70 21.1 68 20 93 93 WSW 6 9 30.03 1017 4 6 0.00 0.00
1:19 am 01:19 Mostly Cloudy with Mist and Fog 69 20.6 68 20 96 96 WSW 6 9 30.03 1017 4 6 0.00 0.00
1:54 am 01:54 Mostly Cloudy with Mist and Fog 68 20 67 19.4 96 96 Calm 30.01 1016 4 6 0.00 0.00
2:09 am 02:09 Partly Cloudy with Mist and Fog 68 20 67 19.4 96 96 SSW 3 6 30.03 1017 5 8 0.00 0.00
2:54 am 02:54 Partly Cloudy with Mist and Fog 67 19.4 66 18.9 97 97 Calm 30.02 1017 5 8 0.00 0.00
3:43 am 03:43 Mostly Cloudy with Mist and Fog 67 19.4 66 18.9 97 97 Calm 30.03 1017 4 6 0.00 0.00
3:54 am 03:54 Cloudy with Mist and Fog 67 19.4 66 18.9 97 97 SSE 5 7 30.02 1017 3 5 0.00 0.00
4:37 am 04:37 Cloudy with Mist and Fog 67 19.4 66 18.9 97 97 Calm 30.03 1017 6 10 0.00 0.00
4:54 am 04:54 Cloudy with Mist and Fog 67 19.4 66 18.9 97 97 Calm 30.05 1018 6 10 0.00 0.00
5:44 am 05:44 Cloudy with Mist and Fog 68 20 66 18.9 93 93 E 3 6 30.06 1018 6 10 0.00 0.00
5:54 am 05:54 Cloudy with Mist and Fog 68 20 66 18.9 93 93 E 3 6 30.06 1018 6 10 0.00 0.00
6:05 am 06:05 Mostly Cloudy 68 20 66 18.9 93 93 E 3 6 30.06 1018 7 11 0.00 0.00
6:54 am 06:54 Cloudy 68 20 67 19.4 96 96 ESE 5 7 30.08 1019 7 11 0.00 0.00
7:41 am 07:41 Cloudy with Mist and Fog 69 20.6 67 19.4 93 93 ESE 5 7 30.09 1019 6 10 0.00 0.00
7:54 am 07:54 Cloudy with Mist and Fog 69 20.6 67 19.4 93 93 ESE 5 7 30.09 1019 6 10 0.00 0.00
8:32 am 08:32 Cloudy with Mist and Fog 70 21.1 68 20 93 93 SE 3 6 30.09 1019 6 10 0.00 0.00
8:54 am 08:54 Cloudy 71 21.7 68 20 90 90 ESE 6 9 30.10 1019 7 11 0.00 0.00
9:44 am 09:44 Cloudy 71 21.7 67 19.4 87 87 SE 7 11 30.09 1019 10 16 0.00 0.00
9:54 am 09:54 Cloudy 71 21.7 67 19.4 87 87 ESE 8 13 30.10 1019 10 16 0.00 0.00
10:54 am 10:54 Cloudy 71 21.7 66 18.9 84 84 SE 8 13 30.11 1020 10 16 0.00 0.00
11:54 am 11:54 Cloudy 71 21.7 66 18.9 84 84 SE 9 15 30.11 1020 10 16 0.00 0.00
12:08 pm 12:08 Cloudy 72 22.2 67 19.4 84 84 ESE 9 15 30.12 1020 10 16 0.00 0.00
12:54 pm 12:54 Cloudy 72 22.2 66 18.9 82 82 SE 8 13 30.11 1020 10 16 0.00 0.00
1:54 pm 13:54 Cloudy 75 23.9 67 19.4 76 76 E 5 7 30.10 1019 10 16 0.00 0.00
2:07 pm 14:07 Cloudy 76 24.4 67 19.4 74 74 E 6 9 30.09 1019 10 16 0.00 0.00
2:22 pm 14:22 Cloudy 77 25 67 19.4 71 71 E 7 11 30.09 1019 10 16 0.00 0.00
2:54 pm 14:54 Mostly Cloudy 79 26.1 67 19.4 67 67 E 6 9 30.08 1019 10 16 0.00 0.00
3:54 pm 15:54 Mostly Cloudy 78 25.6 66 18.9 67 67 SE 12 19 30.06 1018 10 16 0.00 0.00
4:54 pm 16:54 Mostly Cloudy 77 25 67 19.4 71 71 SE 10 17 30.06 1018 10 16 0.00 0.00
5:50 pm 17:50 Cloudy 73 23 66 19 78 78 ESE 12 19 30.06 1018 10 16 0.00 0.00
5:54 pm 17:54 Cloudy 73 22.8 66 18.9 79 79 ESE 9 15 30.05 1018 10 16 0.00 0.00
6:06 pm 18:06 Cloudy 73 22.8 66 18.9 79 79 ESE 8 13 30.06 1018 10 16 0.00 0.00
6:54 pm 18:54 Cloudy 72 22.2 65 18.3 79 79 ESE 10 17 30.05 1018 10 16 0.00 0.00
7:54 pm 19:54 Cloudy 69 20.6 63 17.2 81 81 ESE 10 17 30.06 1018 10 16 0.00 0.00
8:54 pm 20:54 Cloudy 66 18.9 61 16.1 84 84 ESE 9 15 30.07 1018 10 16 0.00 0.00
9:08 pm 21:08 Cloudy 65 18.3 61 16.1 87 87 E 10 17 30.09 1019 10 16 0.00 0.00
9:25 pm 21:25 Cloudy 65 18.3 61 16.1 87 87 E 10 17 30.09 1019 10 16 0.00 0.00
9:54 pm 21:54 Cloudy 64 17.8 61 16.1 90 90 E 10 17 30.09 1019 10 16 0.00 0.00
10:54 pm 22:54 Cloudy 63 17.2 61 16.1 93 93 E 9 15 30.09 1019 10 16 0.00 0.00
11:25 pm 23:25 Cloudy 63 17.2 61 16.1 93 93 E 9 15 30.09 1019 10 16 0.00 0.00
11:54 pm 23:54 Cloudy 63 17.2 61 16.1 93 93 E 8 13 30.09 1019 10 16 0.00 0.00

Powered by AerisWeather